カタログに戻る

OPS 4682 DEB

運用中PO
NORAD 51093·DEBRIS·🇺🇸 United States

打ち上げ Apr 3, 1965 から Vandenberg Space Force Base

Loading…

次のパス (今後24時間)

TLE

最新Source: Space-Track

元期: Sep 14, 2026, 13:52 UTC

1 51093U 65027FV  26257.57833499  .00000015  00000-0  26766-4 0  9995
2 51093  90.2380   7.1559 0038246 195.4467 164.5489 12.96645889455681

AllMySatでOPS 4682 DEBをリアルタイム追跡

Download on the App Store